< < Back
Terminal Aerodrome Forecast


Current Version              Previous Versions:   1  2  3  4  5  6  7  8  9  

Terminal Aerodrome Forecast

252
FTUS42 KILM 052200 AAB
TAFILM
TAF AMD
KILM 052218Z 0522/0618 35015G25KT P6SM -RA SCT015 OVC030
      TEMPO 0522/0524 4SM -RA BKN015
     FM060000 36016G27KT 6SM -RA SCT007 OVC012
     FM060300 01016G27KT P6SM -RAPL BKN007 OVC012
     FM060900 02020G28KT P6SM -RA BKN015 OVC025
     FM061200 02015G25KT P6SM SCT025 BKN050=



Latest METAR

383
SAUS70 KWBC 060400 RRJ
MTRILM
METAR KILM 060353Z 01016G22KT 10SM -RA BKN012 BKN017 OVC022 03/02 A3026
RMK AO2 PK WND 36026/0330 SLP247 P0000 T00330022


USA.gov is the U.S. government's official web portal to all federal, state and local government web resources and services.